Tracking 33744 objects as of 12-Apr-2026
HD Live streaming from Space Station
objects crossing your sky now

COSMOS 1275 DEB

Track COSMOS 1275 DEB now!
10-day predictions


NORAD ID: 42122
Int'l Code: 1981-053QJ
Perigee: 879.8 km
Apogee: 1,013.0 km
Inclination: 82.9 °
Period: 103.8 minutes
Semi major axis: 7317 km
RCS: Unknown
Launch date: June 4, 1981
Source: Commonwealth of Independent States (former USSR) (CIS)
Launch site: PLESETSK MISSILE AND SPACE COMPLEX (PKMTR)

Note: This is SATELLITE DEBRIS
Your satellite tracking list
Your tracking list is empty




NASA's NSSDC Master Catalog

Two Line Element Set (TLE):
1 42122U 81053QJ  26081.27516048  .00001678  00000-0  13757-2 0  9995
2 42122  82.9282  68.9271 0091038  59.5979 301.4143 13.86978250621208
Source of the keplerian elements: AFSPC